www.pogodaiklimat.ru

Погода и климат >> Архив погоды >> Кот-д'Ивуар >> Димбокро


ПОГОДА в Димбокро

  • Прогноз погоды в Димбокро
  • Монитор погоды в Димбокро

АРХИВ ПОГОДЫ в Димбокро

Время (UTC), дата Ветер
(напр.,м/с)
 
Видим.   Явления Облачность Т
(С)
Тd
(С)
f
(%)
Тe
(С)
Тes
(С)
Комфортность P
(гПа)
Po
(гПа)
Тmin
(С)
Tmax
(С)
R
(мм)
R24
(мм)
S
(см)
09 8.09 0 10 км 9/5 400 м
[Sc Ac As]
+26.0 +23.5 86 1017.9 1005.4
12 8.09 0 10 км 10/10 400 м
[Sc]
+27.7 +24.6 83 1017.5 1005.0
00 9.09 0 10 км 9/0
[Ac As]
+23.7 +23.4 98 1017.7 1005.1
03 9.09 0 10 км 8/8 400 м
[Sc]
+23.1 +23.1 100 1016.1 1003.5
06 9.09 0 10 км 9/9 400 м
[Sc]
+23.5 +23.5 100 1016.6 1004.0 +22.6
09 9.09 0 10 км 10/10 400 м
[Sc]
+25.4 +24.0 92 1018.5 1005.9
15 9.09 0 10 км 9/8 400 м
[Cu Sc Ac As]
+30.6 +24.7 71 1013.3 1001.0
18 9.09 0 10 км 8/4 450 м
[Cb calv Ac As]
+29.3 +24.6 76 1013.7 1001.3 +31.6
21 9.09 0 10 км 8/3 400 м
[Sc Ac As]
+25.0 +23.6 92 1016.1 1003.5
00 10.09 0 10 км 9/9 400 м
[Sc]
+24.1 +23.5 96 1016.8 1004.2
03 10.09 0 10 км 9/9 400 м
[Sc]
+24.0 +23.4 96 1015.6 1003.0
06 10.09 0 10 км 9/9 400 м
[Sc]
+23.6 +23.5 99 1016.1 1003.5 +23.2
09 10.09 0 10 км 9/9 400 м
[Sc]
+25.6 +23.9 90 1018.1 1005.5
12 10.09 0 10 км {дождь} 9/8 400 м
[Sc Ac trans]
+30.1 +25.0 74 1015.8 1003.5 0.2
15 10.09 0 10 км 8/8 450 м
[Cu med, cong]
+31.8 +25.5 69 1012.3 1000.1
18 10.09 0 10 км {дождь} 6/5 450 м
[Cb cap Ci ing]
+30.6 +25.7 75 1012.4 1000.1 +32.5 2
21 10.09 0 10 км зарница 9/9 400 м
[Cb cap]
+26.5 +23.6 84 1015.0 1002.5
00 11.09 0 10 км 9/9 400 м
[Sc]
+26.0 +24.1 89 1015.4 1002.9
03 11.09 0 10 км 9/9 400 м
[Sc]
+24.0 +23.6 98 1013.5 1000.9
06 11.09 0 10 км 9/9 400 м
[Sc]
+23.7 +23.6 99 1014.9 1002.3 +23.0 2
09 11.09 0 10 км 9/5 400 м
[Sc Ac As]
+25.3 +24.3 94 1016.8 1004.2
12 11.09 0 10 км 9/9 400 м
[Cu med, cong]
+27.5 +24.8 85 1015.7 1003.3
15 11.09 0 10 км 8/8 450 м
[Cu med, cong]
+32.0 +25.5 69 1012.2 1000.0
18 11.09 0 10 км 6/5 450 м
[Cu med, cong Ci ing]
+31.1 +25.2 71 1011.3 999.1 +32.6
21 11.09 0 10 км 6/6 400 м
[Sc]
+27.3 +25.2 88 1013.3 1000.9
00 12.09 0 10 км 10/10 400 м
[Sc]
+25.4 +23.5 89 1011.5 1002.9
06 12.09 0 10 км 9/9 400 м
[Sc]
+24.6 +23.7 95 1014.0 1001.4 +24.1
09 12.09 0 10 км 9/9 400 м
[Sc]
+26.9 +24.2 85 1016.0 1003.5
12 12.09 0 10 км 9/9 400 м
[Cu med, cong]
+30.4 +25.1 73 1014.4 1002.1
15 12.09 0 10 км 8/8 450 м
[Cu med, cong]
+32.5 +24.8 64 1011.4 999.2
03 15.09 0 10 км 6/3 400 м
[Sc Ac As]
+24.2 +24.2 100 1014.1 1001.5

 

Местоположение метеостанции Димбокро (Кот-д'Ивуар): широта 6.65 долгота -4.70 высота над уровнем моря 92 м.

В архиве по умолчанию представлена погода в Димбокро за последнюю неделю. Архивные данные за месяц целиком и за предыдущие месяцы, начиная с января 2011 года, Вы можете получить, выбрав интересующий диапазон дат из раскрывающегося списка и нажав кнопку "Ввод!".


*Определитесь, кто Вы:
робот инопланетянин человек

Внимание! Время в таблицах - всемирное. Для получения местного времени необходимо прибавить поправку, которая равна 0 ч.

Смотрите также архив погоды в соседних городах и на ближайших метеорологических станциях:

Погода в Ямусукро (Кот-д'Ивуар) (77 км)
Погода в Буаке (Кот-д'Ивуар) (128 км)
Погода в Ганьоа (Кот-д'Ивуар) (150 км)
Погода в Абиджане (Кот-д'Ивуар) (177 км)
Погода в Далоа (Кот-д'Ивуар) (197 км)
Погода в Адиаке (Кот-д'Ивуар) (216 км)
Погода в Сассандре (Кот-д'Ивуар) (243 км)
Погода в Бондуку (Кот-д'Ивуар) (263 км)
Погода в Сефви Беквай (Гана) (267 км)
Погода в Суняни (Гана) (272 км)

Пояснения к столбцам:

Ветер - указаны скорость ветра в м/с - средняя за 10 мин, порывы в срок и между сроками (в фигурных скобках) и направление, откуда дует ветер: С - северный, СВ - северо-восточный, В - восточный, ЮВ - юго-восточный, Ю - южный, ЮЗ - юго-западный, З - западный, СЗ - северо-западный.
Видимость - горизонтальная дальность видимости в метрах или километрах. При видимости от 1 до 10 км при отсутствии осадков обычно наблюдается дымка, при ухудшении видимости до 1 км и менее - туман. В сухую погоду видимость может ухудшаться дымом, пылью или мглою.
Явления - указаны атмосферные явления, наблюдавшиеся в срок или в последний час перед сроком; фигурными скобками обозначены явления, наблюдавшиеся между сроками (за 1-3 часа до срока); квадратными скобками обозначены град или гололедные отложения с указанием их диаметра в мм.
Облачность - указаны через наклонную черту общая и нижняя облачность в баллах и высота нижней границы облаков в метрах; квадратными скобками обозначены формы облаков: Ci - перистые, Cs - перисто-слоистые, Cc - перисто-кучевые, Ac - высококучевые, As - высокослоистые, Sc - слоисто-кучевые, Ns - слоисто-дождевые, Cu - кучевые, Cb - кучево-дождевые. Подробнее классификацию облаков см. в Атласе облаков (PDF).
T - Температура воздуха - температура, измеренная на высоте 2 м над землей.
Td - Температура точки росы - температура, при понижении до которой содержащийся в воздухе водяной пар достигнет насыщения.
f - Относительная влажность воздуха - влажноcть воздуха, измеренная на высоте 2 м над землей.
Te - Эффективная температура - температура, которую ощущает одетый по сезону человек в тени. Характеристика душности погоды. При расчете учитывается влияние влажности воздуха и скорости ветра на теплоощущения человека.
Tes - Эффективная температура на солнце - температура, которую ощущает человек, с поправкой на солнечный нагрев. Характеристика знойности погоды. Зависит от высоты солнца над горизонтом, облачности и скорости ветра. Ночью, в пасмурную погоду, а также при ветре 12 м/с и более поправка равна нулю.
P - Атмосферное давление - приведенное к уровню моря атмосферное давление.
Po - Атмосферное давление - измеренное на уровне метеостанции атмосферное давление.
Tmin - Минимальная температура - минимум температуры воздуха на высоте 2 м над землей.
Tmax - Максимальная температура - максимум температуры воздуха на высоте 2 м над землей.
R - Количество осадков - Количество выпавших осадков за период времени, мм. При наведении курсора мыши на число - период времени, за который выпало указанное количество осадков.
R24 - Количество осадков - Количество выпавших осадков за 24 часа, мм.
S - Снежный покров - Высота снежного покрова, см. При наведении курсора мыши на число - состояние снежного покрова и степень покрытия местности в баллах.